Home > Weather > Waterloo > Past weeks

Flag for Canada Weather for the Past 2 Weeks in Waterloo, Ontario, Canada

Now
45 °F

Clear.


Feels Like: 41 °F
Forecast: 40 / 60 °F
Wind: 6 mph from South

Location: Waterloo Well

Current Time: May 4, 2016 at 12:32:06 AM

Latest Report: May 3, 2016 at 11:00 PM


Visibility: 9 mi

Pressure: 29.80 "Hg

Humidity: 93%

Dew Point: 43 °F

Location of WaterlooLocation

Historic Weather in Waterloo — Graph

°F

Waterloo Temperature Yesterday

Maximum temperature yesterday: 57 °F (at 12:00 PM)
Minimum temperature yesterday: 37 °F (at 7:00 AM)
Average temperature yesterday: 48 °F

High & Low Weather Summary for the Past Weeks

 TemperatureHumidityPressure
High63 °F (Apr 20, 3:00 PM)100% (Apr 22, 4:59 AM)30.36 "Hg (Apr 22, 4:59 AM)
Low28 °F (Apr 27, 5:00 AM)21% (Apr 20, 6:00 PM)29.71 "Hg (Apr 26, 4:00 AM)
Average46 °F67%30.04 "Hg
* Reported Apr 18 11:00 PM — May 3 11:00 PM, Waterloo, Weather by CustomWeather, © 2016

Note: Actual official high and low records may vary slightly from our data, if they occured in-between our weather recording intervals... More about our weather records

Advertising

Waterloo Weather History for the Previous 24 Hours

Scroll right to see more
 ConditionsComfort  
Time TempWeatherWind HumidityBarometerVisibility
11:00 PM
Tue, May 3
45 °FClear.6 mph93%29.80 "Hg9 mi
10:00 PM46 °FClear.6 mph87%29.80 "Hg9 mi
9:00 PM50 °FSunny.6 mph82%29.81 "Hg9 mi
8:00 PM52 °FPartly sunny.6 mph82%29.80 "Hg9 mi
7:00 PM54 °FCloudy.7 mph67%29.81 "Hg9 mi
6:00 PM54 °FLight rain. More clouds than sun.6 mph72%29.82 "Hg9 mi
5:52 PM54 °FLight rain. More clouds than sun.8 mph67%29.81 "Hg9 mi
5:00 PM55 °FOvercast.6 mph59%29.81 "Hg9 mi
4:00 PM57 °FMore clouds than sun.2 mph51%29.83 "Hg9 mi
3:00 PM57 °FOvercast.6 mph48%29.84 "Hg9 mi
2:00 PM55 °FMostly cloudy.8 mph55%29.85 "Hg9 mi
1:00 PM57 °FOvercast.No wind44%29.86 "Hg9 mi
12:00 PM57 °FOvercast.6 mph48%29.88 "Hg9 mi
11:00 AM54 °FOvercast.2 mph58%29.90 "Hg9 mi
10:00 AM52 °FOvercast.2 mph62%29.91 "Hg9 mi
9:00 AM48 °FOvercast.2 mph76%29.93 "Hg9 mi
8:00 AM45 °FOvercast.3 mph87%29.94 "Hg9 mi
7:00 AM37 °FFog.No wind100%29.94 "Hg3 mi
6:00 AM39 °FFog.2 mph93%29.94 "Hg2 mi
5:55 AM39 °FFog.No wind100%29.94 "Hg2 mi
5:00 AM39 °FFog.No wind93%29.95 "Hg3 mi
4:00 AM39 °FFog.No wind93%29.96 "Hg4 mi
3:45 AM39 °FFog.No wind100%29.96 "Hg3 mi
3:03 AM39 °FFog.3 mph93%29.97 "Hg3 mi
2:00 AM39 °FClear.5 mph93%29.98 "Hg8 mi
1:00 AM39 °FClear.5 mph93%29.98 "Hg8 mi
12:00 AM41 °FClear.3 mph87%29.97 "Hg9 mi
Weather by CustomWeather, © 2016

See weather overviewHow to use our weather pages